Date String (YYYY-MM-DD hh:mm:ss) UTC,Instrument flags,Ambient pressure (hPa),Sample flow (lpm),Bypass flow (lpm),Sample temperature (°C),Ambient temperature (°C),ASC tube jacket temperature (°C),LED temperature (°C),Box temperature (°C),Sample RH (%),Span deviation,Mass concentration (μg/m³),Mass concentration (μg/m³),Mass concentration (μg/m³)
DateTimeUTC,F1_M11,P_M11,Q1_M11,Q2_M11,T1_M11,T2_M11,T3_M11,T4_M11,T5_M11,U1_M11,ZSPAN_M11,X2_M11,X0_M11,X1_M11
2022-04-07 04:00:00,,0831.7,5.00,0.00,21.7,20.9,00.0,30.8,23.4,06.4,0000.0,0000.99,0002.44,0000.44
2022-04-07 04:01:00,,0831.7,5.01,0.00,21.7,20.9,00.0,30.8,23.4,06.4,0000.0,0000.93,0002.52,0000.43
2022-04-07 04:02:00,,0831.8,4.99,0.00,21.7,20.9,00.0,30.8,23.4,06.3,0000.0,0000.87,0002.49,0000.43
2022-04-07 04:03:00,,0831.8,4.99,0.00,21.7,20.8,00.0,30.7,23.3,06.4,0000.0,0000.86,0002.45,0000.43
2022-04-07 04:04:00,,0831.9,5.01,0.00,21.7,21.0,00.0,30.7,23.4,06.4,0000.0,0000.89,0002.47,0000.42
2022-04-07 04:05:00,,0832.0,5.00,0.00,21.8,21.7,00.0,30.8,23.6,06.4,0000.0,0000.86,0002.41,0000.42
2022-04-07 04:06:00,,0832.0,5.01,0.00,21.9,22.7,00.0,30.8,23.9,06.4,0000.0,0000.88,0002.44,0000.42
2022-04-07 04:07:00,,0832.0,4.99,0.00,22.1,23.0,00.0,30.9,24.1,06.3,0000.0,0000.92,0002.57,0000.42
2022-04-07 04:08:00,,0832.1,5.00,0.00,22.1,22.8,00.0,30.9,24.1,06.3,0000.0,0000.93,0002.64,0000.42
2022-04-07 04:09:00,,0832.1,5.00,0.00,22.1,22.5,00.0,30.9,24.0,06.3,0000.0,0000.97,0002.53,0000.41
2022-04-07 04:10:00,,0832.1,4.99,0.00,22.1,22.2,00.0,30.9,23.9,06.2,0000.0,0000.98,0002.60,0000.42
2022-04-07 04:11:00,,0832.1,4.99,0.00,22.1,22.0,00.0,31.0,23.9,06.2,0000.0,0000.97,0002.51,0000.42
2022-04-07 04:12:00,,0832.0,5.01,0.00,22.1,21.9,00.0,31.0,23.9,06.2,0000.0,0000.97,0002.30,0000.42
2022-04-07 04:13:00,,0832.1,5.01,0.00,22.1,21.7,00.0,31.0,23.9,06.2,0000.0,0000.95,0002.15,0000.42
2022-04-07 04:14:00,,0832.1,5.00,0.00,22.1,21.6,00.0,31.0,23.8,06.2,0000.0,0000.90,0003.58,0000.42
2022-04-07 04:15:00,,0832.1,4.99,0.00,22.0,21.5,00.0,31.0,23.8,06.2,0000.0,0000.87,0003.76,0000.43
2022-04-07 04:16:00,,0832.1,5.00,0.00,22.0,21.5,00.0,31.0,23.8,06.2,0000.0,0000.90,0003.91,0000.44
2022-04-07 04:17:00,,0832.1,5.00,0.00,22.0,21.4,00.0,31.0,23.8,06.2,0000.0,0000.92,0004.38,0000.44
2022-04-07 04:18:00,,0832.2,4.99,0.00,22.0,21.4,00.0,31.0,23.8,06.1,0000.0,0000.94,0005.09,0000.45
2022-04-07 04:19:00,,0832.1,5.00,0.00,22.0,21.4,00.0,31.0,23.8,06.0,0000.0,0000.98,0005.18,0000.45
2022-04-07 04:20:00,,0832.2,5.01,0.00,22.0,21.3,00.0,31.0,23.8,05.8,0000.0,0000.91,0004.91,0000.45
2022-04-07 04:21:00,,0832.2,5.01,0.00,22.0,21.3,00.0,31.0,23.8,05.7,0000.0,0000.89,0004.97,0000.44
2022-04-07 04:22:00,,0832.1,5.00,0.00,22.0,21.3,00.0,31.0,23.8,05.7,0000.0,0000.88,0004.94,0000.45
2022-04-07 04:23:00,,0832.2,4.99,0.00,22.0,21.3,00.0,31.0,23.8,05.7,0000.0,0000.88,0004.92,0000.46
2022-04-07 04:24:00,,0832.3,5.01,0.00,22.0,21.3,00.0,31.0,23.8,05.7,0000.0,0000.91,0005.00,0000.47
2022-04-07 04:25:00,,0832.3,5.01,0.00,22.0,21.3,00.0,31.0,23.8,05.7,0000.0,0000.94,0003.35,0000.47
2022-04-07 04:26:00,,0832.2,4.99,0.00,22.0,21.3,00.0,31.0,23.8,05.6,0000.0,0000.97,0003.36,0000.48
2022-04-07 04:27:00,,0832.3,5.00,0.00,22.0,21.3,00.0,31.0,23.8,05.6,0000.0,0000.97,0003.74,0000.48
2022-04-07 04:28:00,,0832.2,5.00,0.00,22.0,21.3,00.0,31.0,23.8,05.6,0000.0,0000.96,0003.73,0000.47
2022-04-07 04:29:00,,0832.3,5.00,0.00,22.0,21.3,00.0,31.0,23.8,05.7,0000.0,0000.91,0003.15,0000.47
2022-04-07 04:30:00,,0832.3,4.98,0.00,22.0,21.3,00.0,31.0,23.8,05.7,0000.0,0000.91,0003.78,0000.47
2022-04-07 04:31:00,,0832.4,5.00,0.00,22.0,21.3,00.0,31.0,23.8,05.7,0000.0,0000.92,0004.72,0000.46
2022-04-07 04:32:00,,0832.4,5.00,0.00,22.0,21.3,00.0,31.0,23.8,05.6,0000.0,0000.89,0004.59,0000.46
2022-04-07 04:33:00,,0832.4,5.01,0.00,22.0,21.3,00.0,31.0,23.9,05.6,0000.0,0000.89,0004.70,0000.46
2022-04-07 04:34:00,,0832.4,4.98,0.00,22.0,21.3,00.0,31.0,23.9,05.7,0000.0,0000.87,0006.06,0000.46
2022-04-07 04:35:00,,0832.4,5.00,0.00,22.0,21.3,00.0,31.0,23.8,05.7,0000.0,0000.87,0006.11,0000.45
2022-04-07 04:36:00,,0832.4,5.01,0.00,22.0,21.3,00.0,31.0,23.8,05.6,0000.0,0000.88,0006.19,0000.45
2022-04-07 04:37:00,,0832.4,5.01,0.00,22.0,21.3,00.0,31.0,23.8,05.5,0000.0,0000.86,0006.12,0000.44
2022-04-07 04:38:00,,0832.4,4.99,0.00,22.0,21.3,00.0,31.0,23.9,05.6,0000.0,0000.84,0005.73,0000.43
2022-04-07 04:39:00,,0832.4,5.00,0.00,22.0,21.3,00.0,31.0,23.8,05.5,0000.0,0000.82,0004.97,0000.43
2022-04-07 04:40:00,,0832.5,5.00,0.00,22.1,21.3,00.0,31.0,23.8,05.6,0000.0,0000.83,0005.09,0000.43
2022-04-07 04:41:00,,0832.4,5.00,0.00,22.1,21.3,00.0,31.0,23.9,05.6,0000.0,0000.81,0006.11,0000.44
2022-04-07 04:42:00,,0832.4,4.98,0.00,22.1,21.3,00.0,31.0,23.9,05.7,0000.0,0000.83,0005.38,0000.44
2022-04-07 04:43:00,,0832.4,5.01,0.00,22.1,21.3,00.0,31.0,23.9,05.7,0000.0,0000.85,0005.38,0000.45
2022-04-07 04:44:00,,0832.5,5.01,0.00,22.1,21.4,00.0,31.0,23.9,05.7,0000.0,0000.83,0005.24,0000.45
2022-04-07 04:45:00,,0832.5,4.99,0.00,22.1,21.4,00.0,31.0,23.9,05.6,0000.0,0000.89,0003.95,0000.46
2022-04-07 04:46:00,,0832.5,5.00,0.00,22.1,21.4,00.0,31.0,23.9,05.7,0000.0,0000.93,0003.97,0000.47
2022-04-07 04:47:00,,0832.5,5.01,0.00,22.1,21.3,00.0,31.0,23.9,05.7,0000.0,0000.90,0003.82,0000.47
2022-04-07 04:48:00,,0832.5,4.98,0.00,22.1,21.3,00.0,31.0,23.9,05.7,0000.0,0000.89,0003.80,0000.47
2022-04-07 04:49:00,,0832.5,5.01,0.00,22.1,21.3,00.0,31.0,23.9,05.7,0000.0,0000.88,0003.77,0000.47
2022-04-07 04:50:00,,0832.4,5.00,0.00,22.1,21.3,00.0,31.0,23.9,05.7,0000.0,0000.89,0003.78,0000.48
2022-04-07 04:51:00,,0832.4,5.00,0.00,22.1,21.3,00.0,31.0,23.9,05.6,0000.0,0000.90,0003.55,0000.48
2022-04-07 04:52:00,,0832.4,4.98,0.00,22.1,21.3,00.0,31.0,23.9,05.7,0000.0,0000.90,0001.94,0000.49
2022-04-07 04:53:00,,0832.4,5.01,0.00,22.1,21.3,00.0,31.0,23.9,05.6,0000.0,0000.90,0001.97,0000.49
2022-04-07 04:54:00,,0832.4,5.00,0.00,22.1,21.3,00.0,31.0,23.9,05.5,0000.0,0000.89,0001.90,0000.49
2022-04-07 04:55:00,,0832.4,5.01,0.00,22.1,21.3,00.0,31.0,23.9,05.5,0000.0,0000.93,0002.14,0000.49
2022-04-07 04:56:00,,0832.4,4.99,0.00,22.1,21.3,00.0,31.0,23.9,05.5,0000.0,0000.90,0002.89,0000.48
2022-04-07 04:57:00,,0832.4,5.00,0.00,22.1,21.3,00.0,31.0,23.9,05.6,0000.0,0000.88,0003.30,0000.48
2022-04-07 04:58:00,,0832.5,5.01,0.00,22.1,21.3,00.0,31.0,23.9,05.6,0000.0,0000.92,0003.49,0000.49
2022-04-07 04:59:00,,0832.5,5.00,0.00,22.1,21.3,00.0,31.0,23.9,05.6,0000.0,0000.91,0003.46,0000.49
